www.pogodaiklimat.ru

Погода и климат >> Архив погоды >> Россия >> Якутия >> Усть-Нера


ПОГОДА в Усть-Нере

  • Прогноз погоды в Усть-Нере
  • Монитор погоды в Усть-Нере

АРХИВ ПОГОДЫ в Усть-Нере

Время (UTC), дата Ветер
(напр.,м/с)
 
Видим.   Явления Облачность Т
(С)
Тd
(С)
f
(%)
Тe
(С)
Тes
(С)
Комфортность P
(гПа)
Po
(гПа)
Тmin
(С)
Tmax
(С)
R
(мм)
R24
(мм)
S
(см)
18 16.08 штиль 0 20 км ясно +1.4 +1.1 98 0 0 1023.2 959.5
21 16.08 штиль 0 50 км ?/? +6.6 +4.8 88 +6 +6 1023.2 960.7 +1.4
00 17.08 СВ 4 20 км ясно +16.7 +6.1 50 +16 +20 1020.4 960.2
03 17.08 СВ 4 20 км 4/0
[Ci fib]
+23.5 +5.8 32 +24 +29 комфорт 1017.5 958.8
06 17.08 СВ 4 20 км 8/0
[Ci fib]
+25.7 +3.8 24 +25 +27 комфорт 1015.6 957.4
09 17.08 штиль 0 20 км 4/0
[Ci fib]
+21.5 +6.1 37 +22 +23 комфорт 1016.4 957.4 +25.9
12 17.08 В 1 20 км ясно +8.4 +4.8 78 +8 +8 1020.0 958.2
15 17.08 СВ 1 20 км ясно +4.7 +3.7 93 +3 +3 1022.0 959.2
18 17.08 штиль 0 20 км ясно +1.1 +0.8 98 -0 -0 1023.6 959.9
21 17.08 СВ 4 20 км 8/0
[Ci fib]
+8.0 +4.1 76 +5 +6 1022.5 960.4 +0.6
00 18.08 СВ 3 20 км 8/0
[Ci fib]
+1.7 +5.7 100 -3 +1 1020.0 959.9
03 18.08 штиль 0 50 км ?/? +22.5 +5.9 34 +23 +23 комфорт 1017.4 958.5
06 18.08 В 4 20 км 8/0
[Ci fib]
+23.9 +4.1 28 +24 +26 комфорт 1015.5 957.0 +0.6
09 18.08 СВ 2 20 км 10/0
[Cs]
+19.8 +7.0 43 +21 +21 комфорт 1015.8 956.5 +24.6
12 18.08 СВ 4 20 км 10/0
[As trans Cs]
+13.9 +7.4 65 +13 +13 1017.6 957.0
15 18.08 З 1 20 км 9/0
[Ac lent Cs]
+5.8 +3.9 88 +5 +5 1021.2 958.6
18 18.08 штиль 0 20 км 8/0
[Ac lent Ci fib]
+1.8 +0.7 92 +1 +1 1023.0 959.5
21 18.08 СВ 3 20 км 8/0
[Ac trans Ci fib]
+9.1 +4.6 73 +7 +8 1022.1 960.2 +1.7
00 19.08 СВ 5 20 км 6/0
[Ci fib]
+18.0 +4.1 40 +18 +20 1020.1 960.2
03 19.08 В 4 20 км 8/0
[Ci fib]
+23.1 +3.3 27 +23 +27 комфорт 1017.5 958.7
06 19.08 СВ 4 20 км 8/0
[Ci fib]
+25.4 +2.2 22 +24 +27 комфорт 1015.5 957.2
09 19.08 В 2 20 км 8/0
[Ci fib]
+20.5 +4.8 36 +22 +22 комфорт 1016.1 956.9 +25.6
12 19.08 З 2 20 км 8/0
[Ci fib]
+9.3 +4.6 72 +8 +8 1019.1 957.4
15 19.08 З 2 20 км 4/0
[Ci fib]
+3.5 +0.2 79 +1 +1 1021.5 958.4
18 19.08 штиль 0 20 км 8/0
[Ac trans Ci fib]
+1.5 +0.1 90 0 0 1023.0 959.4
21 19.08 штиль 0 20 км 6/0
[Ci fib]
+7.8 +4.6 80 +7 +9 1022.1 960.0 +0.6
00 20.08 В 1 50 км 3/0
[Ci fib]
+17.5 +5.6 45 +19 +25 1019.2 959.3
03 20.08 ЮВ 1 50 км 3/0
[Ci fib]
+22.9 +5.4 32 +23 +32 комфорт 1016.5 957.8
06 20.08 З 5 50 км 4/0
[Ac trans Ci fib]
+24.5 +5.5 29 +24 +26 комфорт 1015.2 956.8
09 20.08 СЗ 2 50 км 4/0
[Ac trans Ci fib]
+18.1 +7.3 49 +19 +19 1017.3 957.6 +24.8
12 20.08 ЮЗ 2 20 км 1/0
[Ac trans]
+8.3 +5.9 85 +6 +6 1019.8 958.0
15 20.08 штиль 0 20 км ясно +4.0 +3.5 97 +3 +3 1021.7 958.8
18 20.08 штиль 0 20 км ясно +0.9 +0.6 98 -1 -1 1023.8 960.0
21 20.08 штиль 0 50 км ясно +6.7 +5.3 91 +6 +7 1022.8 960.4 +0.4
00 21.08 штиль 0 50 км ясно +15.1 +7.9 62 +15 +23 1020.3 959.9
03 21.08 Ю 1 50 км 3/3 1500 м
[Cu med, cong]
+22.5 +7.1 37 +23 +30 комфорт 1016.7 957.9
06 21.08 В 2 50 км 4/4 1500 м
[Cu med, cong]
+25.5 +6.0 29 +25 +28 комфорт 1014.3 956.2
09 21.08 штиль 0 50 км 8/0
[Ac trans Ci fib]
+23.3 +7.2 35 +24 +24 комфорт 1014.1 955.6 +26.1
12 21.08 штиль 0 20 км 6/0
[Ac trans]
+10.9 +6.2 73 +10 +10 1017.4 956.2
15 21.08 штиль 0 20 км 6/0
[Ac trans]
+7.3 +6.4 94 +6 +6 1018.5 956.5
18 21.08 штиль 0 20 км 8/3 1500 м
[Sc Ac trans]
+4.9 +4.4 97 +4 +4 1020.0 957.3
21 21.08 штиль 0 50 км 6/1 1500 м
[Sc Ac trans]
+5.8 +5.6 99 +5 +6 1020.3 957.9 +3.8
00 22.08 СВ 2 50 км 8/1 1500 м
[Sc Ci fib]
+16.7 +7.8 56 +17 +21 1016.7 956.8
03 22.08 СВ 4 50 км 9/1 1500 м
[Cu hum Ac trans Ci fib]
+25.1 +7.6 33 +25 +28 комфорт 1013.1 955.0
06 22.08 В 2 50 км 9/3 1500 м
[Cu med, cong Ac trans Ci fib]
+26.8 +6.8 28 +26 +28 жарко 1010.9 953.3
09 22.08 СВ 2 50 км 9/4 1500 м
[Cb cap]
+23.5 +9.3 40 +24 +24 комфорт 1011.2 953.0 +27.7
12 22.08 СВ 2 20 км 8/8 1500 м
[Cb cap]
+15.7 +9.3 66 +16 +16 1013.6 953.7
15 22.08 З 1 20 км 6/0
[Ac trans]
+8.5 +6.3 86 +8 +8 1015.9 954.3
18 22.08 штиль 0 20 км 8/8 1500 м
[Cb cap]
+7.8 +6.7 93 +7 +7 1016.6 954.8
21 22.08 СВ 1 50 км 9/9 1500 м
[Cb cap]
+11.4 +8.6 83 +11 +11 1016.1 955.1 +7.2
00 23.08 СВ 4 50 км {ливн. осадки} 8/3 1500 м
[Cb cap Ac trans]
+16.6 +10.0 65 +16 +18 1041.2 954.5
03 23.08 СВ 1 50 км 10/3 1500 м
[Cu hum Ci fib]
+24.0 +7.8 35 +24 +29 комфорт 1011.2 953.0
06 23.08 В 1 50 км 10/3 1500 м
[Cu hum Ci sp]
+24.6 +8.2 35 +25 +27 комфорт 1009.0 951.1
09 23.08 С 2 50 км 10/1 1500 м
[Cb cap Ci fib]
+20.3 +12.1 59 +23 +23 комфорт 1009.0 950.3 +25.4 0.0
12 23.08 Ю 1 50 км 10/3 1500 м
[Sc Ci fib]
+10.4 +7.9 84 +10 +10 1011.7 950.8

 

Местоположение метеостанции Усть-Нера (Якутия, Россия): широта 64.53 долгота 143.10 высота над уровнем моря 519 м.

В архиве по умолчанию представлена погода в Усть-Нере за последнюю неделю. Архивные данные за месяц целиком и за предыдущие месяцы, начиная с января 2011 года, Вы можете получить, выбрав интересующий диапазон дат из раскрывающегося списка и нажав кнопку "Ввод!".


*Определитесь, кто Вы:
робот инопланетянин человек

Внимание! Время в таблицах - всемирное. Для получения местного времени необходимо прибавить поправку, которая равна 10 ч.

Смотрите также архив погоды в соседних городах и на ближайших метеорологических станциях:

Погода в Юртах (Якутия, Россия) (82 км)
Погода в Оймяконе (Якутия, Россия) (142 км)
Погода в Делянкире (Якутия, Россия) (144 км)
Погода в Агаякане (Якутия, Россия) (150 км)
Погода в Усть-Моме (Якутия, Россия) (214 км)
Погода в Восточной (Якутия, Россия) (224 км)
Погода в Сусумане (Магаданская область, Россия) (314 км)
Погода в Иэме (Якутия, Россия) (355 км)
Погода в Томпо (Якутия, Россия) (359 км)
Погода в Теплом Ключе (Якутия, Россия) (367 км)

Пояснения к столбцам:

Ветер - указаны скорость ветра в м/с - средняя за 10 мин, порывы в срок и между сроками (в фигурных скобках) и направление, откуда дует ветер: С - северный, СВ - северо-восточный, В - восточный, ЮВ - юго-восточный, Ю - южный, ЮЗ - юго-западный, З - западный, СЗ - северо-западный.
Видимость - горизонтальная дальность видимости в метрах или километрах. При видимости от 1 до 10 км при отсутствии осадков обычно наблюдается дымка, при ухудшении видимости до 1 км и менее - туман. В сухую погоду видимость может ухудшаться дымом, пылью или мглою.
Явления - указаны атмосферные явления, наблюдавшиеся в срок или в последний час перед сроком; фигурными скобками обозначены явления, наблюдавшиеся между сроками (за 1-3 часа до срока); квадратными скобками обозначены град или гололедные отложения с указанием их диаметра в мм.
Облачность - указаны через наклонную черту общая и нижняя облачность в баллах и высота нижней границы облаков в метрах; квадратными скобками обозначены формы облаков: Ci - перистые, Cs - перисто-слоистые, Cc - перисто-кучевые, Ac - высококучевые, As - высокослоистые, Sc - слоисто-кучевые, Ns - слоисто-дождевые, Cu - кучевые, Cb - кучево-дождевые. Подробнее классификацию облаков см. в Атласе облаков (PDF).
T - Температура воздуха - температура, измеренная на высоте 2 м над землей.
Td - Температура точки росы - температура, при понижении до которой содержащийся в воздухе водяной пар достигнет насыщения.
f - Относительная влажность воздуха - влажноcть воздуха, измеренная на высоте 2 м над землей.
Te - Эффективная температура - температура, которую ощущает одетый по сезону человек в тени. Характеристика душности погоды. При расчете учитывается влияние влажности воздуха и скорости ветра на теплоощущения человека.
Tes - Эффективная температура на солнце - температура, которую ощущает человек, с поправкой на солнечный нагрев. Характеристика знойности погоды. Зависит от высоты солнца над горизонтом, облачности и скорости ветра. Ночью, в пасмурную погоду, а также при ветре 12 м/с и более поправка равна нулю.
P - Атмосферное давление - приведенное к уровню моря атмосферное давление.
Po - Атмосферное давление - измеренное на уровне метеостанции атмосферное давление.
Tmin - Минимальная температура - минимум температуры воздуха на высоте 2 м над землей.
Tmax - Максимальная температура - максимум температуры воздуха на высоте 2 м над землей.
R - Количество осадков - Количество выпавших осадков за период времени, мм. При наведении курсора мыши на число - период времени, за который выпало указанное количество осадков.
R24 - Количество осадков - Количество выпавших осадков за 24 часа, мм.
S - Снежный покров - Высота снежного покрова, см. При наведении курсора мыши на число - состояние снежного покрова и степень покрытия местности в баллах.